TIANHE (48274 NORAD) Tracking and Keplerian Element Data

This shows tracking and keplerian element data for the satellite.

Feedback or suggestion? Click here.




ElementValue
Catalog48274
NameTIANHE
Epoch Orbit278
Epoch Day136.84963131
Epoch Year2021
RAAN115.0496
Inclination41.4705
Eccentricity0.0019193
Argument of Perigee305.5232
Mean Anonmoly129.3193
Mean Motion15.65270465
Decay Rate-3.673E-05
L11 48274U 21035A 21136.84963131 -.00003673 00000-0 -31907-4 0 9999
L22 48274 41.4705 115.0496 0019193 305.5232 129.3193 15.65270465 2783

Live tracking and technical data element details for TIANHE (NORAD 48274). TIANHE can be tracked NOW for your location showing map with azimuth and elevation plus other details from your city location.

Track the satellite on the map from your city or location and see movement details for azimuth, elevation, latitude, longitude, range, height, and movement on the map or in text.







IsCatalogInMostPopularTable: catalog: 48274, numindb: 16
Update: records affected: 1



GetName: 48274 TIANHE

Hit Count: updated at: Mon, 17 May 2021 15:27:07 GMT